This is the latest recevied weather packets stored in our database for station/object N2PUI. If no packets are shown the sender has not sent any weather packets the latest 1 day(s).
| Time | Temp. | Humidity | Pressure | Rain* | Wind** | Luminosity | Snow |
|---|---|---|---|---|---|---|---|
| 1777966406 | 16.67° C | 56% | 1006.9 hPa | 0 mm | 0.89 m/s, 153° | 0 W/m² | - |
| 1777966103 | 16.67° C | 56% | 1007 hPa | 0 mm | 1.34 m/s, 138° | 0 W/m² | - |
| 1777965799 | 16.67° C | 56% | 1006.9 hPa | 0 mm | 0.45 m/s, 154° | 0 W/m² | - |
| 1777965495 | 16.67° C | 55% | 1007 hPa | 0 mm | 2.24 m/s, 191° | 0 W/m² | - |
| 1777965192 | 16.11° C | 57% | 1007.1 hPa | 0 mm | 0 m/s | 0 W/m² | - |
| 1777964890 | 16.11° C | 56% | 1007 hPa | 0 mm | 0.89 m/s, 166° | 0 W/m² | - |
| 1777964586 | 16.11° C | 57% | 1007.1 hPa | 0 mm | 0.45 m/s, 156° | 0 W/m² | - |
| 1777964281 | 16.11° C | 56% | 1006.9 hPa | 0 mm | 0.45 m/s, 154° | 0 W/m² | - |
| 1777963978 | 16.11° C | 57% | 1007.2 hPa | 0 mm | 0 m/s | 0 W/m² | - |
| 1777963675 | 15.56° C | 57% | 1007.2 hPa | 0 mm | 0 m/s | 0 W/m² | - |
| 1777963372 | 15.56° C | 57% | 1007.1 hPa | 0 mm | 0 m/s | 0 W/m² | - |
| 1777963070 | 15.56° C | 56% | 1007.2 hPa | 0 mm | 0 m/s | 0 W/m² | - |
| 1777962766 | 15.56° C | 57% | 1007 hPa | 0 mm | 0.45 m/s, 153° | 0 W/m² | - |
| 1777962463 | 15.56° C | 57% | 1007 hPa | 0 mm | 0 m/s | 0 W/m² | - |
| 1777962161 | 15.56° C | 56% | 1007.1 hPa | 0 mm | 1.79 m/s, 194° | 0 W/m² | - |
| 1777961857 | 15.56° C | 57% | 1007 hPa | 0 mm | 1.34 m/s, 132° | 0 W/m² | - |
| 1777961555 | 15.56° C | 58% | 1006.9 hPa | 0 mm | 0.45 m/s, 115° | 0 W/m² | - |
| 1777961252 | 15.56° C | 57% | 1007.1 hPa | 0 mm | 0.89 m/s, 161° | 0 W/m² | - |
| 1777960950 | 15.56° C | 57% | 1007 hPa | 0 mm | 0.45 m/s, 148° | 0 W/m² | - |
| 1777960644 | 15.56° C | 56% | 1006.9 hPa | 0 mm | 2.24 m/s, 134° | 0 W/m² | - |
| 1777960341 | 15.56° C | 56% | 1007.3 hPa | 0 mm | 1.34 m/s, 125° | 0 W/m² | - |
| 1777960039 | 15.56° C | 56% | 1007.1 hPa | 0 mm | 1.34 m/s, 128° | 0 W/m² | - |
| 1777959736 | 15.56° C | 56% | 1007.3 hPa | 0 mm | 0.89 m/s, 128° | 0 W/m² | - |
| 1777959434 | 15.56° C | 56% | 1006.9 hPa | 0 mm | 1.34 m/s, 123° | 0 W/m² | - |
| 1777959130 | 16.11° C | 55% | 1007.1 hPa | 0 mm | 1.79 m/s, 126° | 0 W/m² | - |
* Rain latest hour (hover to see other rain measurements)
** Current wind speed in m/s (hover to see current wind gust speed)